Вернуться в каталог

SL-8 R/B

АктивенPO
NORAD 16494·ROCKET BODY·🇷🇺 Russia

Запущен Jan 16, 1986 с Plesetsk Cosmodrome

Loading…

Ближайшие Пролёты (ближайшие 24 часа)

TLE

СвежийSource: Space-Track

Эпоха: Sep 14, 2026, 23:19 UTC

1 16494U 86005B   26257.97169988 -.00000050  00000-0 -66196-4 0  9991
2 16494  82.9271  79.7761 0020073 151.1731  12.2833 13.76798774 42243

Отслеживайте SL-8 R/B в реальном времени с AllMySat

Download on the App Store